Regional Weather Roundup
Issued by NWS

Home | Current Version | Previous Version | Text Only | Print | Product List | Glossary On
Versions: 1 2 3 4 5 6 7 8 9 10 11 12 13 14 15 16 17 18 19 20 21 22 23 24 25 26 27 28 29 30 31 32 33 34 35 36 37 38 39 40 41 42 43 44 45 46 47 48 49 50
000
ASUS46 KPQR 262310
RWROR

OREGON REGIONAL WEATHER ROUNDUP
NATIONAL WEATHER SERVICE PORTLAND OR
400 PM PDT THU MAR 26 2015

NOTE: "FAIR" INDICATES FEW OR NO CLOUDS BELOW 12,000 FEET WITH
NO SIGNIFICANT WEATHER AND/OR OBSTRUCTIONS TO VISIBILITY.

ORZ001>013-270000-
NORTHWEST OREGON


CITY           SKY/WX    TMP DP  RH WIND       PRES   REMARKS
ASTORIA        SUNNY     63  52  67 NW12      30.18F
NEWPORT        SUNNY     61  52  72 NW9       30.19F
PORTLAND       MOSUNNY   70  48  45 NW3       30.17F
VANCOUVER WA   SUNNY     70  46  42 SW3       30.16F
SCAPPOOSE      SUNNY     69  51  52 CALM      30.16F
HILLSBORO      SUNNY     71  49  45 CALM      30.16F
AURORA         SUNNY     71  51  49 CALM      30.17F
MCMINNVILLE    SUNNY     70  52  52 VRB3      30.17F
SALEM          SUNNY     69  51  52 NE7       30.16F
CORVALLIS      SUNNY     72  54  53 CALM      30.17F
EUGENE         MOSUNNY   69  54  58 N6        30.16F
$$

ORZ021-028-270000-
SOUTHWEST OREGON


CITY           SKY/WX    TMP DP  RH WIND       PRES   REMARKS
NORTH BEND     SUNNY     59  55  88 NW7       30.18F
BROOKINGS      SUNNY     62  56  81 S8        30.14F
ROSEBURG       SUNNY     76  49  38 CALM      30.13F
SEXTON SUMMIT  SUNNY     66  47  50 CALM      30.21F
MEDFORD        SUNNY     76  53  44 NE6       30.12F
$$

ORZ014>016-041-270000-
COLUMBIA GORGE


CITY           SKY/WX    TMP DP  RH WIND       PRES   REMARKS
TROUTDALE      SUNNY     70  50  49 W6        30.15F
THE DALLES     SUNNY     72  48  42 SW5       30.16F
$$

ORZ029>031-041-044-049-050-061>064-502-503-505>511-270000-
EASTERN OREGON


CITY           SKY/WX    TMP DP  RH WIND       PRES   REMARKS
REDMOND        SUNNY     76  41  28 NE5       30.16F
BEND           SUNNY     73  37  27 CALM      30.17
PRINEVILLE     SUNNY     73  39  29 SE8G15    30.17F
KLAMATH FALLS  SUNNY     70  41  34 CALM      30.22F
LAKEVIEW       SUNNY     70  37  30 CALM      30.27S
HERMISTON      SUNNY     73  44  35 NE6       30.17F
PENDLETON      SUNNY     72  45  37 N6        30.18F
JOHN DAY       SUNNY     69  43  38 NE6       30.24F
MEACHAM        SUNNY     65  42  43 E6        30.26F
LA GRANDE      SUNNY     66  41  39 S17       30.24F
BAKER CITY     SUNNY     64  42  44 E10G22    30.28F
BURNS          SUNNY     66  38  35 NE9       30.28F
ROME             N/A     69  32  25 SW3       30.26F
ONTARIO        SUNNY     67  39  35 VRB3      30.31F
$$


USA.gov is the U.S. government's official web portal to all federal, state and local government web resources and services.